DateTimeUTC,F1_A11,F1_S11,BsB_S11,BsG_S11,BsR_S11,BbsB_S11,BbsG_S11,BbsR_S11,BaB_A11,BaG_A11,BaR_A11,Tu_S11,T_S11,Uu_S11,U_S11,P_S11,T1_A11
2021-06-15T13:00:00Z,00000200,20000000,,,,,,,-000.50,-000.40,-000.33,18.8,24.9,02.8,01.9,0670.0,31.1
2021-06-15T13:01:00Z,00000200,20000000,,,,,,,-000.13,-000.01,0000.30,18.8,24.9,02.8,01.9,0670.0,31.1
2021-06-15T13:02:00Z,00000200,20000000,,,,,,,0000.10,-000.12,-000.16,18.8,25.0,02.8,01.9,0670.0,31.1
2021-06-15T13:03:00Z,00000200,60000000,,,,,,,0000.31,0000.34,-000.01,18.9,25.0,02.8,01.9,0670.0,31.0
2021-06-15T13:04:00Z,00000200,40000000,0000.74,0000.69,0000.52,-000.20,0000.28,0000.25,0000.27,0000.02,0000.21,19.0,24.9,03.0,02.1,0670.9,31.1
2021-06-15T13:05:00Z,00000200,00000000,0000.70,0000.46,0000.33,-000.02,0000.43,0000.14,-000.08,0000.04,0000.14,19.1,24.9,02.9,02.0,0670.9,31.1
2021-06-15T13:06:00Z,00000200,00000000,0001.43,0000.43,0000.31,0000.57,0000.03,0000.32,0000.12,0000.64,0000.02,19.1,24.9,02.9,02.0,0670.9,31.1
2021-06-15T13:07:00Z,00000200,00000000,0000.87,0000.85,0000.34,0000.40,0000.25,0000.29,0000.01,-000.34,-000.06,19.1,24.9,02.9,02.0,0670.9,31.1
2021-06-15T13:08:00Z,00000200,00000000,0000.88,0000.53,0000.32,0000.07,0000.05,0000.35,0000.19,0000.33,0000.11,19.1,24.9,02.8,02.0,0670.9,31.1
2021-06-15T13:09:00Z,00000200,00000000,0001.02,0000.66,0000.49,0000.01,0000.22,0000.11,0000.62,0000.42,0000.03,19.1,25.0,02.9,02.0,0670.9,31.1
2021-06-15T13:10:00Z,00000200,00000000,0000.42,0000.47,0000.54,0000.07,0000.04,0000.21,-000.25,-000.07,0000.42,19.2,25.0,02.9,02.0,0671.0,31.1
2021-06-15T13:11:00Z,00000200,00000000,0001.01,0000.71,0000.56,0000.57,0000.28,0000.08,0000.25,-000.09,-000.32,19.2,25.0,02.8,02.0,0670.9,31.1
2021-06-15T13:12:00Z,00000200,00000000,0000.27,0000.29,0000.17,-000.14,0000.29,0000.34,0000.35,0000.21,0000.47,19.2,25.0,02.7,01.9,0670.9,31.1
2021-06-15T13:13:00Z,00000200,00000000,0000.55,0000.75,0000.48,0000.00,0000.04,0000.31,-000.11,0000.09,0000.10,19.2,25.0,02.7,01.9,0671.0,31.1
2021-06-15T13:14:00Z,00000200,00000000,0001.21,0000.69,0000.12,0000.41,0000.12,0000.41,0000.06,0000.22,0000.02,19.2,25.0,02.7,01.9,0670.9,31.1
2021-06-15T13:15:00Z,00000200,00000000,0000.66,0000.60,0000.33,0000.22,0000.40,0000.31,0000.21,-000.01,0000.25,19.3,25.1,02.8,02.0,0670.9,31.1
2021-06-15T13:16:00Z,00000200,00000000,0000.55,0000.38,0000.44,0000.27,0000.23,0000.18,0000.43,0000.72,-000.00,19.3,25.1,02.8,02.0,0671.0,31.1
2021-06-15T13:17:00Z,00000200,00000000,0000.80,0000.75,0000.53,0000.55,0000.15,0000.13,0000.10,-000.12,0000.06,19.3,25.1,02.9,02.0,0671.0,31.1
2021-06-15T13:18:00Z,00000200,00000000,0000.82,0000.84,0000.54,0000.28,0000.20,0000.32,0000.20,0000.18,0000.38,19.3,25.1,02.8,02.0,0671.0,31.1
2021-06-15T13:19:00Z,00000200,00000000,0001.68,0000.51,0000.40,0000.66,0000.27,0000.05,0000.25,0000.04,-000.19,19.3,25.1,02.9,02.0,0671.0,31.1
2021-06-15T13:20:00Z,00000200,00000000,0001.10,0000.72,0000.60,0000.47,0000.24,-000.07,0000.23,0000.34,0000.31,19.3,25.1,02.8,02.0,0670.9,31.1
2021-06-15T13:21:00Z,00000200,00000000,0000.56,0000.65,0000.42,0000.36,-000.10,0000.26,-000.02,0000.29,-000.01,19.3,25.1,02.8,02.0,0670.9,31.1
2021-06-15T13:22:00Z,00000200,00000000,0000.20,0000.72,0000.69,-000.13,0000.44,0000.26,-000.11,-000.16,0000.13,19.4,25.1,02.7,01.9,0670.9,31.1
2021-06-15T13:23:00Z,00000200,00000000,0000.98,0000.52,0000.37,0000.54,0000.06,0000.29,0000.50,0000.43,0000.15,19.4,25.1,02.7,01.9,0671.0,31.1
2021-06-15T13:24:00Z,00000200,00000000,0000.56,0000.09,0000.44,0000.04,0000.13,0000.27,0000.24,0000.24,0000.21,19.4,25.1,02.8,02.0,0671.0,31.1
2021-06-15T13:25:00Z,00000200,00000000,0000.63,0000.64,0000.06,0000.34,0000.50,0000.38,0000.31,0000.00,-000.07,19.4,25.1,02.7,01.9,0671.0,31.1
2021-06-15T13:26:00Z,00000200,00000000,0000.51,0000.51,0000.41,0000.48,0000.22,0000.31,-000.23,-000.06,0000.05,19.4,25.2,02.8,02.0,0671.0,31.1
2021-06-15T13:27:00Z,00000200,00000000,0000.58,0000.41,0000.10,0000.19,0000.14,0000.01,0000.50,0000.27,0000.40,19.4,25.2,02.7,01.9,0670.9,31.1
2021-06-15T13:28:00Z,00000200,00000000,0000.93,-000.01,0000.20,0000.17,0000.21,0000.02,-000.15,-000.05,0000.00,19.4,25.2,02.6,01.9,0671.0,31.1
2021-06-15T13:29:00Z,00000200,00000000,0000.90,0000.65,0000.54,0000.18,0000.32,0000.20,0000.28,0000.18,-000.14,19.4,25.2,02.6,01.8,0671.0,31.1
2021-06-15T13:30:00Z,00000200,00000000,0000.80,0000.56,0000.21,-000.11,0000.24,-000.22,0000.24,0000.50,0000.58,19.4,25.2,02.7,01.9,0671.0,31.1
2021-06-15T13:31:00Z,00000200,00000000,0000.17,0000.58,0000.39,0000.02,0000.37,0000.15,0000.16,-000.17,0000.07,19.5,25.2,02.8,02.0,0671.0,31.1
2021-06-15T13:32:00Z,00000200,00000000,0000.89,0000.61,0000.23,0000.47,0000.36,-000.04,-000.23,0000.26,-000.34,19.5,25.2,02.8,01.9,0671.0,31.1
2021-06-15T13:33:00Z,00000200,00000000,0000.92,0000.60,0000.36,0000.43,0000.01,0000.22,0000.27,0000.08,0000.37,19.5,25.3,02.7,01.9,0671.1,31.1
2021-06-15T13:34:00Z,00000200,00000000,0000.83,0000.62,0000.24,0000.45,0000.14,0000.03,0000.48,0000.17,0000.16,19.5,25.3,02.7,01.9,0671.0,31.1
2021-06-15T13:35:00Z,00000200,00000000,0000.22,0000.55,0000.29,0000.16,0000.13,0000.25,0000.33,0000.18,0000.15,19.5,25.3,02.8,02.0,0670.9,31.1
2021-06-15T13:36:00Z,00000200,00000000,0000.51,0000.45,0000.48,-000.08,0000.23,0000.17,-000.12,0000.40,0000.35,19.5,25.3,02.7,01.9,0671.0,31.1
2021-06-15T13:37:00Z,00000200,00000000,0001.01,0000.63,0000.29,0000.14,0000.23,0000.21,0000.18,0000.17,-000.16,19.5,25.4,02.6,01.9,0671.0,31.1
2021-06-15T13:38:00Z,00000200,00000000,0000.82,0000.60,0000.48,0000.16,0000.12,0000.18,0000.43,0000.01,0000.26,19.6,25.4,02.6,01.9,0671.0,31.1
2021-06-15T13:39:00Z,00000200,00000000,0000.20,0000.28,0000.42,0000.20,0000.28,0000.16,0000.00,0000.11,0000.20,19.6,25.4,02.7,01.9,0671.0,31.1
2021-06-15T13:40:00Z,00000200,00000000,0000.98,0000.53,0000.32,0000.25,0000.21,0000.14,0000.30,0000.37,0000.08,19.6,25.4,02.7,01.9,0671.0,31.1
2021-06-15T13:41:00Z,00000200,00000000,0001.25,0000.70,0000.37,-000.28,0000.31,-000.04,0000.04,-000.09,0000.01,19.6,25.4,02.6,01.9,0671.0,31.1
2021-06-15T13:42:00Z,00000200,00000000,0000.36,0000.71,0000.19,0000.50,0000.28,0000.23,0000.19,0000.15,0000.07,19.6,25.4,02.7,01.9,0671.0,31.1
2021-06-15T13:43:00Z,00000200,00000000,0000.58,0000.58,0000.14,0000.28,0000.25,-000.07,-000.17,0000.31,0000.29,19.6,25.4,02.7,01.9,0670.9,31.1
2021-06-15T13:44:00Z,00000200,00000000,-000.25,0000.57,0000.54,0000.27,0000.12,0000.11,0000.56,0000.22,0000.07,19.6,25.4,02.5,01.8,0671.0,31.1
2021-06-15T13:45:00Z,00000200,00000000,0000.73,0000.57,0000.39,0000.34,0000.06,0000.17,0000.27,0000.14,0000.18,19.6,25.5,02.6,01.8,0671.0,31.1
2021-06-15T13:46:00Z,00000200,00000000,0000.32,0000.64,-000.10,-000.20,0000.08,-000.32,0000.45,0000.15,0000.06,19.6,25.5,02.7,01.9,0671.0,31.1
2021-06-15T13:47:00Z,00000200,00000000,0000.89,0000.42,0000.13,0000.29,0000.11,-000.13,-000.09,0000.27,0000.16,19.7,25.5,02.6,01.8,0671.0,31.1
2021-06-15T13:48:00Z,00000200,00000000,0000.70,0000.53,0000.22,0000.22,0000.25,0000.27,0000.19,-000.15,0000.24,19.7,25.5,02.6,01.8,0671.0,31.1
2021-06-15T13:49:00Z,00000200,00000000,0001.35,0000.88,0000.60,0000.30,0000.15,0000.19,-000.17,0000.38,0000.08,19.7,25.5,02.6,01.8,0671.0,31.1
2021-06-15T13:50:00Z,00000200,00000000,0001.20,0000.54,0000.28,-000.29,0000.13,0000.04,0000.84,0000.27,0000.25,19.7,25.6,02.6,01.8,0671.0,31.1
2021-06-15T13:51:00Z,00000200,00000000,0000.54,0000.44,0000.39,0000.33,0000.18,0000.13,-000.18,0000.03,-000.11,19.7,25.5,02.6,01.8,0671.1,31.2
2021-06-15T13:52:00Z,00000200,00000000,0001.11,0000.55,0000.39,0000.30,0000.02,0000.22,0000.49,0000.53,0000.31,19.7,25.5,02.6,01.8,0671.1,31.1
2021-06-15T13:53:00Z,00000200,00000000,0000.81,0000.56,0000.33,0000.13,0000.13,-000.01,-000.05,-000.37,0000.10,19.8,25.5,02.7,01.9,0671.1,31.1
2021-06-15T13:54:00Z,00000200,00000000,0000.74,0000.69,0000.48,0000.27,0000.18,0000.20,0000.24,0000.60,0000.05,19.7,25.6,02.6,01.8,0671.1,31.1
2021-06-15T13:55:00Z,00000200,00000000,0001.02,0000.32,0000.32,0000.44,0000.23,-000.08,0000.05,-000.12,-000.08,19.8,25.6,02.6,01.8,0671.1,31.1
2021-06-15T13:56:00Z,00000200,00000000,0000.42,0000.22,0000.45,-000.29,0000.24,-000.10,0000.52,0000.47,0000.26,19.8,25.6,02.6,01.9,0671.1,31.1
2021-06-15T13:57:00Z,00000200,40000000,,,,,,,0000.10,0000.43,0000.42,19.8,25.7,02.4,01.7,0671.2,31.1
2021-06-15T13:58:00Z,00000200,60000000,,,,,,,-000.23,-000.37,-000.24,19.7,25.7,02.5,01.7,0670.2,31.1
2021-06-15T13:59:00Z,00000200,20000000,,,,,,,-000.24,-000.22,0000.16,19.7,25.8,02.5,01.7,0670.1,31.1
